Orbital elements of FENGYUN 1C DEB
| Launched | 9 May 1999 |
| Flight ended | – |
| Launch site | Taiyuan Space Center, PRC |
| Owner | People's Republic of China |
| NORAD ID | 31776 |
| Date fetched |
Epoch osculation |
Inc. [°] |
Ecc. | RA asc node [hr] |
Arg Peri. [°] |
Mean anom [°] |
Mean motion [rev/day] |
Abs. mag |
| Date fetched |
Epoch osculation |
Inc. [°] |
Ecc. | RA asc node [hr] |
Arg Peri. [°] |
Mean anom [°] |
Mean motion [rev/day] |
Abs. mag |
| 2026 May 08 17:57 | 2026 May 03 15:52:20 | 99.0600 | 0.00519 | 12.7760 | 290.6696 | 222.9036 | 14.19397 | – |
| 2026 May 07 17:58 | 2026 May 03 15:52:20 | 99.0600 | 0.00519 | 12.7760 | 290.6696 | 222.9036 | 14.19397 | – |
| 2026 May 06 17:57 | 2026 May 03 15:52:20 | 99.0600 | 0.00519 | 12.7760 | 290.6696 | 222.9036 | 14.19397 | – |
| 2026 May 05 17:57 | 2026 May 03 15:52:20 | 99.0600 | 0.00519 | 12.7760 | 290.6696 | 222.9036 | 14.19397 | – |
| 2026 May 04 17:57 | 2026 Apr 27 03:38:13 | 99.0601 | 0.00516 | 12.3321 | 309.8445 | 222.9036 | 14.19397 | – |
| 2026 May 03 17:57 | 2026 Apr 27 03:38:13 | 99.0601 | 0.00516 | 12.3321 | 309.8445 | 222.9036 | 14.19397 | – |
| 2026 May 02 17:57 | 2026 Apr 27 03:38:13 | 99.0601 | 0.00516 | 12.3321 | 309.8445 | 222.9036 | 14.19397 | – |
| 2026 May 01 17:56 | 2026 Apr 27 03:38:13 | 99.0601 | 0.00516 | 12.3321 | 309.8445 | 222.9036 | 14.19397 | – |
| 2026 Apr 30 17:56 | 2026 Apr 27 03:38:13 | 99.0601 | 0.00516 | 12.3321 | 309.8445 | 222.9036 | 14.19397 | – |
| 2026 Apr 29 17:57 | 2026 Apr 22 03:31:05 | 99.0604 | 0.00520 | 11.9909 | 324.5599 | 222.9036 | 14.19397 | – |
| 2026 Apr 28 17:56 | 2026 Apr 22 03:31:05 | 99.0604 | 0.00520 | 11.9909 | 324.5599 | 222.9036 | 14.19397 | – |
| 2026 Apr 27 17:58 | 2026 Apr 22 03:31:05 | 99.0604 | 0.00520 | 11.9909 | 324.5599 | 222.9036 | 14.19397 | – |
| 2026 Apr 26 17:58 | 2026 Apr 22 03:31:05 | 99.0604 | 0.00520 | 11.9909 | 324.5599 | 222.9036 | 14.19397 | – |
| 2026 Apr 25 17:58 | 2026 Apr 22 03:31:05 | 99.0604 | 0.00520 | 11.9909 | 324.5599 | 222.9036 | 14.19397 | – |
| 2026 Apr 24 17:59 | 2026 Apr 22 03:31:05 | 99.0604 | 0.00520 | 11.9909 | 324.5599 | 222.9036 | 14.19397 | – |
| 2026 Apr 23 17:57 | 2026 Apr 18 03:05:24 | 99.0607 | 0.00521 | 11.7170 | 336.4525 | 222.9036 | 14.19397 | – |
| 2026 Apr 22 17:57 | 2026 Apr 18 03:05:24 | 99.0607 | 0.00521 | 11.7170 | 336.4525 | 222.9036 | 14.19397 | – |
| 2026 Apr 21 17:57 | 2026 Apr 18 03:05:24 | 99.0607 | 0.00521 | 11.7170 | 336.4525 | 222.9036 | 14.19397 | – |
| 2026 Apr 20 17:57 | 2026 Apr 18 03:05:24 | 99.0607 | 0.00521 | 11.7170 | 336.4525 | 222.9036 | 14.19397 | – |
| 2026 Apr 19 17:58 | 2026 Apr 18 03:05:24 | 99.0607 | 0.00521 | 11.7170 | 336.4525 | 222.9036 | 14.19397 | – |
| 2026 Apr 18 17:56 | 2026 Apr 13 02:56:59 | 99.0615 | 0.00524 | 11.3757 | 351.1776 | 222.9036 | 14.19397 | – |
| 2026 Apr 16 17:57 | 2026 Apr 13 02:56:59 | 99.0615 | 0.00524 | 11.3757 | 351.1776 | 222.9036 | 14.19397 | – |
| 2026 Apr 14 17:57 | 2026 Apr 13 02:56:59 | 99.0615 | 0.00524 | 11.3757 | 351.1776 | 222.9036 | 14.19397 | – |
| 2026 Apr 13 17:57 | 2026 Apr 13 02:56:59 | 99.0615 | 0.00524 | 11.3757 | 351.1776 | 222.9036 | 14.19397 | – |
| 2026 Apr 12 17:57 | 2026 Apr 07 15:34:43 | 99.0612 | 0.00528 | 11.0025 | 7.1461 | 222.9036 | 14.19397 | – |
| 2026 Apr 11 17:57 | 2026 Apr 07 15:34:43 | 99.0612 | 0.00528 | 11.0025 | 7.1461 | 222.9036 | 14.19397 | – |